This is the latest recevied weather packets stored in our database for station/object KG5WBN. If no packets are shown the sender has not sent any weather packets the latest 10 day(s).
| Time | Temp. | Humidity | Pressure | Rain* | Wind** | Luminosity | Snow |
|---|---|---|---|---|---|---|---|
| 1777706600 | 17.78° C | 99% | 1011.9 hPa | 25.91 mm | - | 0 W/m² | - |
| 1777706297 | 17.78° C | 99% | 1011.9 hPa | 34.8 mm | - | 0 W/m² | - |
| 1777705995 | 17.78° C | 99% | 1011.5 hPa | 18.54 mm | - | 0 W/m² | - |
| 1777705693 | 17.78° C | 99% | 1011.9 hPa | 1.27 mm | - | 0 W/m² | - |
| 1777705390 | 17.78° C | 99% | 1011.5 hPa | 3.05 mm | - | 0 W/m² | - |
| 1777705089 | 17.78° C | 99% | 1010.8 hPa | 9.65 mm | - | 0 W/m² | - |
| 1777704787 | 17.78° C | 99% | 1011.2 hPa | 8.89 mm | - | 0 W/m² | - |
| 1777704484 | 17.78° C | 99% | 1011.9 hPa | 4.83 mm | - | 0 W/m² | - |
| 1777704182 | 17.78° C | 99% | 1011.9 hPa | 3.05 mm | - | 0 W/m² | - |
| 1777703879 | 17.78° C | 99% | 1011.9 hPa | 0 mm | - | 0 W/m² | - |
| 1777703577 | 17.78° C | 99% | 1011.9 hPa | 0 mm | - | 0 W/m² | - |
| 1777703274 | 17.78° C | 99% | 1011.5 hPa | 0 mm | - | 0 W/m² | - |
| 1777702971 | 18.33° C | 99% | 1011.9 hPa | 0 mm | - | 0 W/m² | - |
| 1777702670 | 18.33° C | 99% | 1011.5 hPa | 0 mm | - | 0 W/m² | - |
| 1777702368 | 18.33° C | 99% | 1011.5 hPa | 0 mm | - | 0 W/m² | - |
| 1777702067 | 18.33° C | 99% | 1011.2 hPa | 1.27 mm | - | 0 W/m² | - |
| 1777701763 | 18.33° C | 99% | 1011.2 hPa | 3.05 mm | - | 0 W/m² | - |
| 1777701462 | 18.33° C | 99% | 1011.5 hPa | 8.89 mm | - | 0 W/m² | - |
| 1777701159 | 18.33° C | 99% | 1011.9 hPa | 6.1 mm | - | 0 W/m² | - |
| 1777700858 | 18.33° C | 99% | 1011.9 hPa | 3.05 mm | - | 0 W/m² | - |
| 1777700555 | 18.89° C | 99% | 1011.9 hPa | 0 mm | - | 0 W/m² | - |
| 1777700253 | 18.89° C | 99% | 1012.2 hPa | 0 mm | - | 0 W/m² | - |
| 1777699950 | 18.89° C | 99% | 1011.9 hPa | 1.78 mm | - | 0 W/m² | - |
| 1777699648 | 18.89° C | 99% | 1011.2 hPa | 1.78 mm | - | 0 W/m² | - |
| 1777699346 | 18.89° C | 99% | 1011.2 hPa | 1.27 mm | - | 0 W/m² | - |
* Rain latest hour (hover to see other rain measurements)
** Current wind speed in m/s (hover to see current wind gust speed)